When you browse on this site, cookies collect data to enhance your experience and personalize the content and advertising you see.
Visit our Privacy Policy to learn more. By continuing to use the site, you agree to this use of cookies and data.
  • In Czech Republic
  • List of Countries
  • For 7 days
  • Water Temperature
  • Satellite Maps
  • Weather Map
  • Weather Widgets
  • user-avatar
    Login

    Hourly Weather Modesto

    Today, 17 July, Wednesday

    Time Temperature Precipitation Wind Pressure Humidity
    00:00 +17°C° 0 mm 2 mps 756 mmHg 60%
    01:00 +16°C° 0 mm 2 mps 757 mmHg 67%
    02:00 +16°C° 0 mm 2 mps 756 mmHg 71%
    03:00 +15°C° 0 mm 1 mps 756 mmHg 75%
    04:00 +14°C° 0 mm 1 mps 756 mmHg 79%
    05:00 +16°C° 0 mm 2 mps 756 mmHg 74%
    06:00 +17°C° 0 mm 2 mps 756 mmHg 68%
    07:00 +19°C° 0 mm 2 mps 757 mmHg 63%
    08:00 +23°C° 0 mm 2 mps 756 mmHg 52%
    09:00 +26°C° 0 mm 2 mps 756 mmHg 41%
    10:00 +29°C° 0 mm 1 mps 756 mmHg 30%
    11:00 +32°C° 0 mm 1 mps 756 mmHg 26%
    12:00 +35°C° 0 mm 1 mps 755 mmHg 22%
    13:00 +37°C° 0 mm 1 mps 755 mmHg 17%
    14:00 +39°C° 0 mm 1 mps 755 mmHg 17%
    15:00 +39°C° 0 mm 1 mps 754 mmHg 16%
    16:00 +40°C° 0 mm 1 mps 754 mmHg 15%
    17:00 +38°C° 0 mm 2 mps 754 mmHg 18%
    18:00 +36°C° 0 mm 2 mps 755 mmHg 21%
    19:00 +33°C° 0 mm 3 mps 755 mmHg 24%
    20:00 +30°C° 0 mm 3 mps 755 mmHg 29%
    21:00 +27°C° 0 mm 2 mps 755 mmHg 35%
    22:00 +25°C° 0 mm 2 mps 755 mmHg 40%
    23:00 +24°C° 0 mm 2 mps 755 mmHg 42%

    Tomorrow, 18 July, Thursday

    Time Temperature Precipitation Wind Pressure Humidity
    00:00 +23°C° 0 mm 1 mps 755 mmHg 44%
    01:00 +22°C° 0 mm 1 mps 756 mmHg 46%
    02:00 +22°C° 0 mm 1 mps 755 mmHg 48%
    03:00 +21°C° 0 mm 1 mps 755 mmHg 50%
    04:00 +20°C° 0 mm 1 mps 755 mmHg 53%
    05:00 +21°C° 0 mm 1 mps 756 mmHg 50%
    06:00 +23°C° 0 mm 1 mps 756 mmHg 47%
    07:00 +24°C° 0 mm 1 mps 756 mmHg 45%
    08:00 +27°C° 0 mm 1 mps 756 mmHg 39%
    09:00 +29°C° 0 mm 1 mps 756 mmHg 33%
    10:00 +32°C° 0 mm 1 mps 756 mmHg 27%
    11:00 +34°C° 0 mm 1 mps 756 mmHg 23%
    12:00 +37°C° 0 mm 2 mps 755 mmHg 20%
    13:00 +39°C° 0 mm 3 mps 755 mmHg 17%
    14:00 +39°C° 0 mm 3 mps 755 mmHg 19%
    15:00 +38°C° 0 mm 4 mps 755 mmHg 20%
    16:00 +37°C° 0 mm 5 mps 754 mmHg 22%
    17:00 +35°C° 0 mm 4 mps 754 mmHg 30%
    18:00 +32°C° 0 mm 4 mps 755 mmHg 37%
    19:00 +28°C° 0 mm 4 mps 755 mmHg 44%
    20:00 +25°C° 0 mm 3 mps 755 mmHg 53%
    21:00 +22°C° 0 mm 3 mps 755 mmHg 61%
    22:00 +19°C° 0 mm 2 mps 756 mmHg 69%
    23:00 +18°C° 0 mm 2 mps 756 mmHg 73%

    Day after tomorrow, 19 July, Friday

    Time Temperature Precipitation Wind Pressure Humidity
    00:00 +17°C° 0 mm 2 mps 756 mmHg 78%
    01:00 +16°C° 0 mm 1 mps 756 mmHg 82%
    02:00 +16°C° 0 mm 1 mps 756 mmHg 83%
    03:00 +15°C° 0 mm 1 mps 755 mmHg 85%
    04:00 +14°C° 0 mm 0 mps 755 mmHg 86%
    05:00 +15°C° 0 mm 0 mps 756 mmHg 80%
    06:00 +17°C° 0 mm 0 mps 756 mmHg 73%
    07:00 +18°C° 0 mm 0 mps 756 mmHg 67%
    08:00 +23°C° 0 mm 1 mps 756 mmHg 57%
    09:00 +26°C° 0 mm 1 mps 756 mmHg 47%
    10:00 +29°C° 0 mm 1 mps 756 mmHg 37%
    11:00 +32°C° 0 mm 1 mps 756 mmHg 31%
    12:00 +35°C° 0 mm 2 mps 755 mmHg 26%
    13:00 +37°C° 0 mm 2 mps 755 mmHg 20%
    14:00 +38°C° 0 mm 2 mps 755 mmHg 19%
    15:00 +38°C° 0 mm 3 mps 754 mmHg 18%
    16:00 +39°C° 0 mm 3 mps 754 mmHg 17%
    17:00 +36°C° 0 mm 4 mps 754 mmHg 23%
    18:00 +33°C° 0 mm 4 mps 755 mmHg 28%
    19:00 +30°C° 0 mm 5 mps 755 mmHg 34%
    20:00 +27°C° 0 mm 4 mps 755 mmHg 42%
    21:00 +24°C° 0 mm 3 mps 756 mmHg 49%
    22:00 +20°C° 0 mm 2 mps 756 mmHg 57%
    23:00 +19°C° 0 mm 2 mps 756 mmHg 62%

    20 July, Saturday

    Time Temperature Precipitation Wind Pressure Humidity
    00:00 +18°C° 0 mm 2 mps 756 mmHg 67%
    01:00 +17°C° 0 mm 2 mps 756 mmHg 72%
    02:00 +18°C° 0 mm 1 mps 756 mmHg 74%
    03:00 +16°C° 0 mm 1 mps 756 mmHg 77%
    04:00 +16°C° 0 mm 1 mps 756 mmHg 79%
    05:00 +18°C° 0 mm 1 mps 757 mmHg 73%
    06:00 +20°C° 0 mm 1 mps 757 mmHg 67%
    07:00 +21°C° 0 mm 1 mps 757 mmHg 61%
    08:00 +24°C° 0 mm 2 mps 757 mmHg 52%
    09:00 +27°C° 0 mm 2 mps 757 mmHg 43%
    10:00 +30°C° 0 mm 2 mps 757 mmHg 35%
    11:00 +32°C° 0 mm 2 mps 756 mmHg 30%
    12:00 +35°C° 0 mm 2 mps 756 mmHg 25%
    13:00 +38°C° 0 mm 2 mps 755 mmHg 21%
    14:00 +38°C° 0 mm 2 mps 755 mmHg 19%
    15:00 +39°C° 0 mm 2 mps 755 mmHg 18%
    16:00 +40°C° 0 mm 3 mps 754 mmHg 17%
    17:00 +37°C° 0 mm 3 mps 754 mmHg 21%
    18:00 +35°C° 0 mm 4 mps 754 mmHg 26%
    19:00 +33°C° 0 mm 5 mps 755 mmHg 30%
    20:00 +29°C° 0 mm 4 mps 755 mmHg 38%
    21:00 +26°C° 0 mm 3 mps 756 mmHg 45%
    22:00 +22°C° 0 mm 3 mps 756 mmHg 53%
    23:00 +21°C° 0 mm 2 mps 756 mmHg 55%

    21 July, Sunday

    Time Temperature Precipitation Wind Pressure Humidity
    00:00 +20°C° 0 mm 2 mps 756 mmHg 58%
    01:00 +19°C° 0 mm 2 mps 756 mmHg 61%
    02:00 +18°C° 0 mm 2 mps 756 mmHg 62%
    03:00 +18°C° 0 mm 2 mps 756 mmHg 64%
    04:00 +17°C° 0 mm 2 mps 756 mmHg 66%
    05:00 +19°C° 0 mm 2 mps 756 mmHg 61%
    06:00 +20°C° 0 mm 2 mps 757 mmHg 55%
    07:00 +23°C° 0 mm 2 mps 757 mmHg 50%
    08:00 +26°C° 0 mm 2 mps 757 mmHg 42%
    09:00 +29°C° 0 mm 2 mps 756 mmHg 34%
    10:00 +32°C° 0 mm 2 mps 756 mmHg 27%
    11:00 +35°C° 0 mm 2 mps 756 mmHg 23%
    12:00 +38°C° 0 mm 2 mps 755 mmHg 20%
    13:00 +40°C° 0 mm 2 mps 755 mmHg 16%
    14:00 +41°C° 0 mm 2 mps 755 mmHg 15%
    15:00 +42°C° 0 mm 2 mps 754 mmHg 14%
    16:00 +43°C° 0 mm 2 mps 754 mmHg 13%
    17:00 +40°C° 0 mm 3 mps 754 mmHg 16%
    18:00 +37°C° 0 mm 4 mps 754 mmHg 20%
    19:00 +35°C° 0 mm 5 mps 755 mmHg 24%
    20:00 +32°C° 0 mm 4 mps 755 mmHg 28%
    21:00 +28°C° 0 mm 3 mps 755 mmHg 33%
    22:00 +25°C° 0 mm 2 mps 756 mmHg 37%
    23:00 +25°C° 0 mm 2 mps 756 mmHg 39%

    22 July, Monday

    Time Temperature Precipitation Wind Pressure Humidity
    00:00 +24°C° 0 mm 2 mps 756 mmHg 42%
    01:00 +23°C° 0 mm 2 mps 756 mmHg 44%
    02:00 +21°C° 0 mm 2 mps 756 mmHg 45%
    03:00 +21°C° 0 mm 2 mps 756 mmHg 46%
    04:00 +20°C° 0 mm 2 mps 756 mmHg 47%
    05:00 +23°C° 0 mm 2 mps 756 mmHg 44%
    06:00 +24°C° 0 mm 2 mps 756 mmHg 40%
    07:00 +26°C° 0 mm 2 mps 756 mmHg 36%
    08:00 +29°C° 0 mm 2 mps 756 mmHg 31%
    09:00 +32°C° 0 mm 2 mps 756 mmHg 25%
    10:00 +36°C° 0 mm 2 mps 756 mmHg 19%
    11:00 +39°C° 0 mm 2 mps 756 mmHg 17%
    12:00 +41°C° 0 mm 2 mps 756 mmHg 14%
    13:00 +43°C° 0 mm 2 mps 755 mmHg 12%
    14:00 +45°C° 0 mm 2 mps 755 mmHg 12%
    15:00 +46°C° 0 mm 2 mps 755 mmHg 11%
    16:00 +46°C° 0 mm 2 mps 755 mmHg 11%
    17:00 +43°C° 0 mm 3 mps 755 mmHg 14%
    18:00 +40°C° 0 mm 4 mps 756 mmHg 17%
    19:00 +36°C° 0 mm 5 mps 756 mmHg 20%
    20:00 +33°C° 0 mm 4 mps 756 mmHg 24%
    21:00 +29°C° 0 mm 3 mps 757 mmHg 29%
    22:00 +26°C° 0 mm 2 mps 757 mmHg 33%
    23:00 +26°C° 0 mm 2 mps 757 mmHg 35%
    Show more